This is the latest recevied weather packets stored in our database for station/object N7WSS. If no packets are shown the sender has not sent any weather packets the latest 1 day(s).
| Time | Temp. | Humidity | Pressure | Rain* | Wind** | Luminosity | Snow |
|---|---|---|---|---|---|---|---|
| 1778032092 | 20.56° C | 32% | 1009 hPa | 0 mm | 1.79 m/s, 65° | - | - |
| 1778031789 | 20.56° C | 33% | 1009 hPa | 0 mm | 2.24 m/s, 7° | - | - |
| 1778031486 | 20.56° C | 33% | 1009 hPa | 0 mm | 1.34 m/s, 33° | - | - |
| 1778031183 | 20.56° C | 33% | 1009 hPa | 0 mm | 0.89 m/s, 138° | - | - |
| 1778030879 | 21.11° C | 34% | 1008.9 hPa | 0 mm | 0.89 m/s, 63° | - | - |
| 1778030576 | 21.11° C | 33% | 1008.9 hPa | 0 mm | 1.34 m/s, 141° | - | - |
| 1778030274 | 21.11° C | 34% | 1008.8 hPa | 0 mm | 1.34 m/s, 55° | - | - |
| 1778029970 | 21.11° C | 35% | 1008.9 hPa | 0 mm | 1.79 m/s, 72° | - | - |
| 1778029668 | 21.11° C | 34% | 1008.7 hPa | 0 mm | 1.79 m/s, 84° | - | - |
| 1778029365 | 21.67° C | 34% | 1008.7 hPa | 0 mm | 0.89 m/s, 118° | - | - |
| 1778029063 | 21.67° C | 34% | 1008.7 hPa | 0 mm | 0.89 m/s, 85° | - | - |
| 1778028759 | 21.11° C | 34% | 1008.5 hPa | 0 mm | 1.34 m/s, 64° | - | - |
| 1778028455 | 21.11° C | 33% | 1008.5 hPa | 0 mm | 1.79 m/s, 127° | - | - |
| 1778028153 | 21.67° C | 33% | 1008.4 hPa | 0 mm | 1.79 m/s, 96° | - | - |
| 1778027849 | 22.22° C | 32% | 1008.5 hPa | 0 mm | 1.79 m/s, 120° | - | - |
| 1778027545 | 22.78° C | 30% | 1008.5 hPa | 0 mm | 0.89 m/s, 76° | - | - |
| 1778027241 | 22.78° C | 30% | 1008.3 hPa | 0 mm | 0.45 m/s, 101° | - | - |
| 1778026938 | 22.78° C | 30% | 1008.4 hPa | 0 mm | 2.24 m/s, 91° | - | - |
| 1778026633 | 23.33° C | 29% | 1008.3 hPa | 0 mm | 2.24 m/s, 100° | - | - |
| 1778026331 | 22.78° C | 29% | 1008.2 hPa | 0 mm | 2.68 m/s, 78° | - | - |
| 1778026028 | 23.33° C | 28% | 1008.4 hPa | 0 mm | 2.68 m/s, 63° | - | - |
| 1778025726 | 23.33° C | 29% | 1008.3 hPa | 0 mm | 2.68 m/s, 72° | - | - |
| 1778025423 | 23.33° C | 29% | 1008.4 hPa | 0 mm | 1.34 m/s, 109° | - | - |
| 1778025121 | 23.33° C | 29% | 1008.2 hPa | 0 mm | 0.89 m/s, 115° | - | - |
| 1778024817 | 23.33° C | 28% | 1008.3 hPa | 0 mm | 0.89 m/s, 134° | - | - |
* Rain latest hour (hover to see other rain measurements)
** Current wind speed in m/s (hover to see current wind gust speed)